1501002000.96,45446,19.94,73000.3,6.63,6.39,6.39,0,*79
1501002002.15,45447,19.94,73002.8,6.63,6.29,6.29,0,*78
1501002003.36,45448,19.94,73000.0,6.65,6.33,6.29,0,*7A
1501002004.57,45449,19.94,73000.8,6.65,6.29,6.33,0,*7B
1501002005.78,45450,19.94,73000.3,6.65,6.33,6.33,0,*78
1501002006.99,45451,19.94,73002.3,6.63,6.33,6.39,0,*75
1501002008.23,45452,19.94,72996.0,6.63,6.43,6.43,0,*7C
1501002009.48,45453,19.94,73002.0,6.65,6.39,6.43,0,*76
1501002010.74,45454,19.94,72998.3,6.65,6.43,6.51,0,*7F
1501002011.98,45455,19.94,73000.8,6.63,6.51,6.51,0,*7B
1501002013.24,45456,19.94,73000.8,6.65,6.51,6.51,0,*7E
1501002014.5,45457,19.94,72996.3,6.65,6.51,6.51,0,*7F
1501002015.76,45458,19.94,73004.3,6.65,6.51,6.53,0,*72
1501002017.01,45459,19.94,73000.5,6.65,6.53,6.51,0,*73
1501002018.27,45460,19.94,72998.8,6.65,6.43,6.51,0,*78
1501002019.53,45461,19.94,73002.8,6.65,6.43,6.51,0,*79
1501002020.78,45462,19.94,73002.3,6.65,6.39,6.53,0,*75
1501002022.03,45463,19.94,73000.0,6.65,6.39,6.43,0,*75
1501002023.27,45464,19.94,73000.5,6.67,6.43,6.47,0,*79
1501002024.53,45465,19.94,73000.3,6.65,6.43,6.39,0,*73
1501002025.78,45466,19.94,73002.5,6.65,6.39,6.39,0,*7D
1501002026.99,45467,19.94,73002.8,6.65,6.29,6.33,0,*77
1501002028.21,45468,19.94,72998.5,6.65,6.33,6.33,0,*73
1501002029.44,45469,19.94,73002.5,6.65,6.33,6.39,0,*78
1501002030.68,45470,19.94,72998.0,6.67,6.35,6.43,0,*79
1501002031.92,45471,19.94,73002.3,6.67,6.35,6.35,0,*79
1501002033.14,45472,19.94,73002.3,6.65,6.33,6.33,0,*78
1501002034.34,45473,19.94,73002.0,6.65,6.29,6.29,0,*79
1501002035.58,45474,19.94,73002.8,6.65,6.33,6.39,0,*74
1501002036.83,45475,19.94,73000.0,6.65,6.43,6.39,0,*72
1501002038.06,45476,19.94,72998.5,6.67,6.47,6.53,0,*7B
1501002039.32,45477,19.94,73000.3,6.65,6.43,6.43,0,*7D
1501002040.56,45478,19.94,73000.8,6.67,6.47,6.47,0,*70
1501002041.8,45479,19.94,73000.5,6.67,6.43,6.47,0,*75
1501002043.06,45480,19.94,73000.3,6.65,6.39,6.43,0,*78
1501002044.3,45481,19.94,73002.3,6.67,6.43,6.43,0,*76
1501002045.53,45482,19.94,73002.5,6.67,6.43,6.43,0,*75
1501002046.78,45483,19.94,73000.8,6.67,6.43,6.47,0,*70
1501002048.01,45484,19.94,73002.5,6.67,6.43,6.43,0,*73
1501002049.27,45485,19.94,72996.8,6.69,6.47,6.51,0,*7B
1501002050.51,45486,19.94,73000.5,6.67,6.43,6.43,0,*71
1501002051.77,45487,19.94,72998.3,6.69,6.47,6.47,0,*7E
1501002053.03,45488,19.94,73000.8,6.65,6.43,6.43,0,*7D
1501002054.29,45489,19.94,73002.5,6.65,6.39,6.43,0,*71
1501002055.54,45490,19.94,73002.3,6.65,6.43,6.43,0,*74
1501002056.77,45491,19.94,73000.8,6.67,6.47,6.53,0,*72
1501002058.02,45492,19.94,73000.8,6.67,6.51,6.47,0,*73
1501002059.26,45493,19.94,73002.8,6.67,6.43,6.43,0,*75
1501002060.52,45494,19.94,73002.3,6.69,6.51,6.47,0,*7B
1501002061.76,45495,19.94,72998.5,6.67,6.43,6.43,0,*73
1501002063.02,45496,19.94,73002.5,6.69,6.39,6.47,0,*77
1501002064.27,45497,19.94,73000.0,6.69,6.39,6.47,0,*76
1501002065.52,45498,19.94,73000.8,6.67,6.35,6.47,0,*7B
1501002066.76,45499,19.94,72998.3,6.67,6.35,6.47,0,*7A
1501002068.0,45500,19.94,72998.3,6.67,6.43,6.47,0,*7A
1501002069.26,45501,19.94,73002.3,6.69,6.47,6.47,0,*71
1501002070.5,45502,19.94,73000.3,6.67,6.43,6.43,0,*7C
1501002071.74,45503,19.94,72996.3,6.67,6.47,6.43,0,*79
1501002073.0,45504,19.94,73002.3,6.69,6.51,6.51,0,*74
1501002074.26,45505,19.94,73000.5,6.69,6.51,6.51,0,*75
1501002075.51,45506,19.94,72998.0,6.67,6.43,6.47,0,*7C
1501002076.75,45507,19.94,73002.0,6.67,6.47,6.47,0,*79
1501002078.01,45508,19.94,73000.8,6.69,6.51,6.51,0,*78
1501002079.27,45509,19.94,72998.8,6.69,6.47,6.51,0,*7E
1501002080.51,45510,19.94,73000.0,6.67,6.51,6.47,0,*78
1501002081.75,45511,19.94,73002.5,6.67,6.47,6.47,0,*7E
1501002083.01,45512,19.94,73002.8,6.69,6.47,6.51,0,*74
1501002084.28,45513,19.94,73000.5,6.69,6.51,6.47,0,*75
1501002085.52,45514,19.94,72998.3,6.67,6.47,6.47,0,*7B
1501002086.76,45515,19.94,73000.5,6.67,6.43,6.47,0,*7E
1501002088.0,45516,19.94,73000.8,6.67,6.43,6.43,0,*79
1501002089.25,45517,19.94,72998.0,6.69,6.47,6.43,0,*72
1501002090.47,45518,19.94,73002.3,6.67,6.33,6.35,0,*71
1501002091.73,45519,19.94,73002.3,6.69,6.35,6.39,0,*74
1501002092.99,45520,19.94,72998.0,6.69,6.39,6.47,0,*7B
1501002094.24,45521,19.94,72998.8,6.69,6.39,6.47,0,*7A
1501002095.5,45522,19.94,73000.5,6.69,6.47,6.51,0,*77
1501002096.74,45523,19.94,72998.5,6.67,6.47,6.43,0,*7B
1501002098.0,45524,19.94,72998.8,6.69,6.39,6.35,0,*7A
1501002099.26,45525,19.94,73000.5,6.69,6.47,6.47,0,*77
1501002100.52,45526,19.94,73000.0,6.69,6.35,6.47,0,*71
1501002101.78,45527,19.94,73000.5,6.69,6.39,6.47,0,*7C
1501002103.04,45528,19.94,72998.5,6.69,6.39,6.51,0,*74
1501002104.28,45529,19.94,73002.3,6.67,6.35,6.43,0,*74
1501002105.47,45530,19.94,73002.3,6.67,6.33,6.25,0,*7A
1501002106.68,45531,19.94,73000.8,6.71,6.29,6.35,0,*76
1501002107.9,45532,19.94,72996.3,6.67,6.33,6.35,0,*79
1501002109.09,45533,19.94,73002.3,6.67,6.33,6.33,0,*7E
1501002110.35,45534,19.94,72996.5,6.69,6.35,6.47,0,*72
1501002111.55,45535,19.94,72998.8,6.67,6.33,6.33,0,*78
1501002112.8,45536,19.94,72996.0,6.69,6.39,6.39,0,*75
1501002114.03,45537,19.94,73000.5,6.71,6.35,6.39,0,*71
1501002115.27,45538,19.94,73000.8,6.69,6.25,6.35,0,*7A
1501002116.46,45539,19.94,73002.0,6.67,6.21,6.21,0,*74
1501002117.65,45540,19.94,73000.8,6.67,6.25,6.25,0,*7A
1501002118.83,45541,19.94,73000.8,6.67,6.25,6.25,0,*7B
1501002120.07,45542,19.94,72996.3,6.69,6.35,6.29,0,*7B
1501002121.3,45543,19.94,73000.8,6.69,6.29,6.35,0,*7A
1501002122.5,45544,19.94,73002.8,6.67,6.25,6.33,0,*79
1501002123.71,45545,19.94,73002.3,6.67,6.25,6.35,0,*7E
1501002124.9,45546,19.94,72998.5,6.67,6.33,6.33,0,*7C
1501002126.1,45547,19.94,73000.8,6.67,6.33,6.33,0,*7D
1501002127.29,45548,19.94,73000.3,6.67,6.33,6.33,0,*72
1501002128.51,45549,19.94,72998.3,6.67,6.33,6.35,0,*75
1501002129.75,45550,19.94,72998.5,6.67,6.35,6.35,0,*7B
1501002130.96,45551,19.94,72998.0,6.67,6.39,6.33,0,*70
1501002132.15,45552,19.94,72998.5,6.67,6.33,6.33,0,*79
1501002133.35,45553,19.94,73000.5,6.67,6.25,6.33,0,*7F
1501002134.59,45554,19.94,72998.8,6.67,6.35,6.35,0,*7F
1501002135.83,45555,19.94,73002.8,6.67,6.35,6.35,0,*7E
1501002137.08,45556,19.94,72996.8,6.67,6.35,6.35,0,*7D
1501002138.29,45557,19.94,72996.3,6.67,6.35,6.33,0,*7A
1501002139.54,45558,19.94,73000.5,6.67,6.35,6.35,0,*73
1501002140.75,45559,19.94,73000.3,6.67,6.25,6.35,0,*73
1501002141.94,45560,19.94,72996.8,6.67,6.21,6.33,0,*7B
1501002143.13,45561,19.94,73000.5,6.67,6.21,6.25,0,*7D
1501002144.33,45562,19.94,72998.0,6.67,6.25,6.33,0,*7D
1501002145.52,45563,19.94,73000.5,6.67,6.25,6.25,0,*7B
1501002146.71,45564,19.94,72998.0,6.67,6.33,6.33,0,*7C
1501002147.93,45565,19.94,72996.8,6.67,6.33,6.47,0,*7E
1501002149.17,45566,19.94,73000.8,6.67,6.35,6.35,0,*7E
1501002150.41,45567,19.94,73002.5,6.65,6.33,6.43,0,*7A
1501002151.66,45568,19.94,72998.5,6.65,6.39,6.43,0,*7F
1501002152.88,45569,19.94,73000.0,6.67,6.33,6.35,0,*77
1501002154.12,45570,19.94,72998.0,6.67,6.35,6.43,0,*78
1501002155.36,45571,19.94,72996.8,6.67,6.43,6.35,0,*79
1501002156.6,45572,19.94,72998.3,6.67,6.43,6.35,0,*7A
1501002157.84,45573,19.94,73000.8,6.67,6.43,6.43,0,*7A
1501002159.1,45574,19.94,73000.0,6.69,6.35,6.35,0,*73
1501002160.32,45575,19.94,72998.8,6.67,6.33,6.35,0,*7A
1501002161.51,45576,19.94,72996.5,6.67,6.33,6.33,0,*7F
1501002162.7,45577,19.94,72998.3,6.67,6.33,6.25,0,*79
1501002163.89,45578,19.94,73000.8,6.67,6.33,6.33,0,*71
1501002165.08,45579,19.94,72996.0,6.67,6.33,6.25,0,*77
1501002166.3,45580,19.94,72998.3,6.67,6.35,6.33,0,*70
1501002167.52,45581,19.94,73002.0,6.67,6.35,6.33,0,*71
1501002168.71,45582,19.94,73000.0,6.67,6.33,6.33,0,*74
1501002169.93,45583,19.94,72996.5,6.67,6.33,6.35,0,*73
1501002171.17,45584,19.94,72996.0,6.67,6.35,6.35,0,*72
1501002172.38,45585,19.94,73000.0,6.65,6.29,6.33,0,*7A
1501002173.62,45586,19.94,72996.3,6.67,6.35,6.35,0,*70
1501002174.84,45587,19.94,72996.8,6.67,6.33,6.35,0,*77
1501002176.06,45588,19.94,73002.0,6.67,6.33,6.35,0,*78
1501002177.28,45589,19.94,73000.5,6.67,6.33,6.35,0,*79
1501002178.52,45590,19.94,72998.8,6.67,6.35,6.35,0,*77
1501002179.74,45591,19.94,72998.8,6.67,6.33,6.35,0,*70
1501002180.93,45592,19.94,72998.0,6.67,6.33,6.33,0,*75
1501002182.19,45593,19.94,72998.3,6.69,6.35,6.39,0,*76
1501002183.4,45594,19.94,73000.0,6.67,6.33,6.35,0,*75
1501002184.61,45595,19.94,72996.3,6.65,6.29,6.29,0,*70
1501002185.8,45596,19.94,72996.5,6.67,6.33,6.33,0,*71
1501002187.0,45597,19.94,73000.5,6.67,6.33,6.33,0,*70
1501002188.18,45598,19.94,72998.3,6.67,6.25,6.25,0,*7F
1501002189.37,45599,19.94,72998.5,6.67,6.21,6.25,0,*7A
1501002190.56,45600,19.94,73000.0,6.67,6.21,6.21,0,*7D
1501002191.77,45601,19.94,72996.8,6.69,6.25,6.29,0,*7E
1501002192.95,45602,19.94,72998.0,6.67,6.21,6.21,0,*7F
1501002194.21,45603,19.94,72998.3,6.65,6.17,6.17,0,*7C
1501002195.43,45604,19.94,73002.3,6.65,6.11,6.17,0,*7D
1501002196.66,45605,19.94,72998.8,6.65,6.07,6.17,0,*7B
1501002197.87,45606,19.94,72998.0,6.67,6.13,6.11,0,*79
1501002199.05,45607,19.94,72996.5,6.63,6.07,6.11,0,*79
1501002200.25,45608,19.94,72998.3,6.63,6.11,6.17,0,*77
1501002201.46,45609,19.94,73000.5,6.65,6.11,6.11,0,*76
1501002202.64,45610,19.94,72998.0,6.63,6.11,6.11,0,*78
1501002203.84,45611,19.94,72996.5,6.63,6.17,6.11,0,*7F
1501002205.08,45612,19.94,72998.8,6.65,6.21,6.17,0,*79
1501002206.26,45613,19.94,72998.8,6.63,6.21,6.21,0,*7B
1501002207.49,45614,19.94,72998.8,6.63,6.17,6.17,0,*7C
1501002208.72,45615,19.94,73000.5,6.63,6.17,6.17,0,*7D
1501002209.95,45616,19.94,73000.8,6.63,6.17,6.17,0,*7E
1501002211.17,45617,19.94,72996.5,6.65,6.17,6.21,0,*7C
1501002212.4,45618,19.94,72998.5,6.63,6.17,6.17,0,*70
1501002213.61,45619,19.94,72998.3,6.63,6.17,6.21,0,*74
1501002214.81,45620,19.94,72996.5,6.65,6.21,6.29,0,*75
1501002216.0,45621,19.94,72996.5,6.63,6.21,6.21,0,*7A
1501002217.23,45622,19.94,72996.5,6.65,6.21,6.17,0,*7A
1501002218.42,45623,19.94,72998.0,6.63,6.21,6.21,0,*78
1501002219.6,45624,19.94,72996.3,6.63,6.21,6.21,0,*7F
1501002220.81,45625,19.94,72996.3,6.63,6.17,6.21,0,*7B
1501002222.01,45626,19.94,72998.0,6.63,6.11,6.17,0,*7B
1501002223.19,45627,19.94,73002.0,6.63,6.21,6.21,0,*7C
1501002224.4,45628,19.94,72998.8,6.63,6.17,6.21,0,*76
1501002225.63,45629,19.94,73000.8,6.63,6.17,6.17,0,*72
1501002226.84,45630,19.94,72998.0,6.63,6.21,6.17,0,*7F
1501002228.07,45631,19.94,72998.0,6.63,6.17,6.17,0,*7B
1501002229.25,45632,19.94,72996.3,6.63,6.21,6.21,0,*78
1501002230.44,45633,19.94,73000.3,6.63,6.21,6.21,0,*79
1501002231.62,45634,19.94,72996.5,6.63,6.29,6.29,0,*7E
1501002232.81,45635,19.94,72998.8,6.63,6.33,6.33,0,*7F
1501002234.0,45636,19.94,73000.0,6.63,6.33,6.33,0,*7C
1501002235.21,45637,19.94,72998.8,6.61,6.25,6.29,0,*73
1501002236.4,45638,19.94,72996.0,6.63,6.33,6.33,0,*72
1501002237.58,45639,19.94,73000.3,6.63,6.21,6.29,0,*7B
1501002238.77,45640,19.94,72996.0,6.63,6.29,6.21,0,*75
1501002239.95,45641,19.94,72998.0,6.63,6.21,6.21,0,*7C
1501002241.15,45642,19.94,72998.0,6.63,6.17,6.21,0,*7A
1501002242.34,45643,19.94,72998.0,6.63,6.21,6.21,0,*7E
1501002243.57,45644,19.94,72998.5,6.63,6.17,6.17,0,*79
1501002244.75,45645,19.94,72994.8,6.63,6.11,6.11,0,*78
1501002245.93,45646,19.94,72998.3,6.63,6.07,6.11,0,*7C
1501002247.11,45647,19.94,73000.5,6.63,5.99,6.11,0,*79
1501002248.29,45648,19.94,72998.3,6.63,6.11,6.07,0,*72
1501002249.47,45649,19.94,73000.8,6.63,5.99,5.99,0,*74
1501002250.65,45650,19.94,73000.5,6.63,5.99,6.07,0,*78
1501002251.86,45651,19.94,72998.0,6.61,5.95,5.95,0,*7F
1501002253.07,45652,19.94,72996.8,6.61,6.03,6.03,0,*7C
1501002254.28,45653,19.94,72996.8,6.61,6.03,6.07,0,*79
1501002255.49,45654,19.94,73000.5,6.61,6.07,6.03,0,*7E
1501002256.75,45655,19.94,72998.3,6.61,6.13,6.13,0,*7B
1501002257.98,45656,19.94,72998.0,6.59,6.13,6.13,0,*73
1501002259.19,45657,19.94,72996.5,6.61,6.03,6.07,0,*7D
1501002260.38,45658,19.94,72998.8,6.59,6.03,6.03,0,*7D
1501002261.57,45659,19.94,72998.8,6.59,6.03,6.07,0,*78
1501002262.77,45660,19.94,72996.3,6.59,6.03,6.03,0,*76
1501002263.97,45661,19.94,72996.5,6.61,6.07,6.07,0,*7C
1501002265.17,45662,19.94,72998.8,6.59,6.07,6.13,0,*71
1501002266.42,45663,19.94,72996.8,6.61,6.13,6.17,0,*7A
1501002267.67,45664,19.94,72998.8,6.61,6.17,6.13,0,*7D
1501002268.91,45665,19.94,72998.3,6.59,6.17,6.17,0,*73
1501002270.14,45666,19.94,72996.8,6.59,6.17,6.13,0,*74
1501002271.34,45667,19.94,73000.0,6.59,6.17,6.29,0,*7C
1501002272.53,45668,19.94,72996.3,6.59,6.29,6.25,0,*72
1501002273.74,45669,19.94,72996.3,6.61,6.25,6.25,0,*74
1501002274.96,45670,19.94,72998.0,6.61,6.25,6.25,0,*7C
1501002276.14,45671,19.94,73000.3,6.59,6.25,6.25,0,*76
1501002277.36,45672,19.94,72998.0,6.61,6.25,6.25,0,*7E
1501002278.55,45673,19.94,72996.5,6.59,6.25,6.25,0,*74
1501002279.73,45674,19.94,72996.8,6.63,6.21,6.29,0,*72
1501002280.94,45675,19.94,72998.8,6.59,6.25,6.17,0,*73
1501002282.2,45676,19.94,72998.0,6.61,6.17,6.17,0,*7A
1501002283.43,45677,19.94,72996.5,6.59,6.17,6.17,0,*70
1501002284.62,45678,19.94,72998.3,6.59,6.25,6.25,0,*7F
1501002285.85,45679,19.94,73000.0,6.59,6.17,6.17,0,*7E
1501002287.08,45680,19.94,72996.3,6.59,6.17,6.13,0,*7C
1501002288.32,45681,19.94,72998.5,6.59,6.13,6.17,0,*7D
1501002289.57,45682,19.94,72996.3,6.61,6.13,6.13,0,*71
1501002290.77,45683,19.94,72996.8,6.59,6.07,6.13,0,*7E
1501002291.99,45684,19.94,72998.5,6.61,6.03,6.03,0,*77
1501002293.18,45685,19.94,72996.8,6.59,6.03,6.07,0,*79
1501002294.36,45686,19.94,72998.5,6.59,5.95,6.03,0,*72
1501002295.6,45687,19.94,72998.8,6.61,5.95,5.93,0,*72
1501002296.81,45688,19.94,72996.0,6.61,6.03,5.95,0,*77
1501002298.02,45689,19.94,73002.3,6.59,5.95,5.93,0,*77
1501002299.21,45690,19.94,72996.3,6.59,6.03,5.95,0,*75
1501002300.44,45691,19.94,72996.3,6.61,5.93,5.95,0,*75
1501002301.63,45692,19.94,72998.3,6.59,5.95,6.03,0,*77
1501002302.83,45693,19.94,73000.0,6.59,6.03,6.03,0,*7A
1501002304.04,45694,19.94,72996.3,6.59,5.93,5.95,0,*7B
1501002305.3,45695,19.94,72996.8,6.57,5.93,5.93,0,*72
1501002306.49,45696,19.94,72998.5,6.59,6.03,5.95,0,*73
1501002307.72,45697,19.94,73000.8,6.57,5.99,5.93,0,*7A
1501002308.94,45698,19.94,72998.8,6.57,5.99,6.03,0,*7F
1501002310.14,45699,19.94,72996.3,6.53,5.95,5.95,0,*7A
1501002311.35,45700,19.94,72998.0,6.57,5.99,5.99,0,*7F
1501002312.61,45701,19.94,72996.3,6.53,5.89,5.89,0,*7A
1501002313.87,45702,19.94,72996.3,6.57,5.93,5.93,0,*7D
1501002315.1,45703,19.94,72998.8,6.53,5.89,5.95,0,*75
1501002316.35,45704,19.94,72998.0,6.53,5.89,5.89,0,*7F
1501002317.61,45705,19.94,72998.0,6.57,5.93,5.93,0,*7A
1501002318.87,45706,19.94,73000.0,6.57,5.93,5.89,0,*72
1501002320.12,45707,19.94,72996.5,6.53,5.85,5.85,0,*7C
1501002321.38,45708,19.94,72998.8,6.57,5.93,5.93,0,*77
1501002322.63,45709,19.94,72998.8,6.53,5.85,5.85,0,*72
1501002323.89,45710,19.94,72994.3,6.53,5.89,5.89,0,*7A
1501002325.11,45711,19.94,72996.3,6.49,5.85,5.85,0,*70
1501002326.37,45712,19.94,72998.8,6.51,5.89,5.89,0,*7A
1501002327.63,45713,19.94,72996.5,6.51,5.89,5.89,0,*7B
1501002328.84,45714,19.94,72998.0,6.51,5.95,5.99,0,*70
1501002330.05,45715,19.94,72998.8,6.53,5.95,5.95,0,*7F
1501002331.25,45716,19.94,72998.5,6.51,5.95,5.95,0,*7E
1501002332.46,45717,19.94,72996.5,6.49,5.95,5.93,0,*70
1501002333.66,45718,19.94,72998.3,6.53,5.95,5.95,0,*72
1501002334.87,45719,19.94,72998.5,6.51,5.95,5.95,0,*71
1501002336.08,45720,19.94,72998.0,6.53,6.07,5.99,0,*7D
1501002337.28,45721,19.94,72998.5,6.51,6.07,6.11,0,*7D
1501002338.48,45722,19.94,72996.8,6.51,6.07,6.11,0,*7E
1501002339.69,45723,19.94,72996.3,6.51,6.11,6.07,0,*7F
1501002340.88,45724,19.94,72998.8,6.49,6.03,6.03,0,*76
1501002342.09,45725,19.94,73002.3,6.51,5.99,5.99,0,*7E
1501002343.3,45726,19.94,72994.8,6.51,5.95,5.99,0,*71
1501002344.56,45727,19.94,73002.5,6.51,5.89,5.85,0,*70
1501002345.79,45728,19.94,73002.3,6.49,5.85,5.81,0,*7E
1501002347.04,45729,19.94,72996.5,6.51,5.85,5.85,0,*72
1501002348.3,45730,19.94,72998.5,6.51,5.89,5.85,0,*76
1501002349.55,45731,19.94,72996.0,6.51,5.85,5.85,0,*7B
1501002350.81,45732,19.94,72996.5,6.51,5.85,5.85,0,*78
1501002352.04,45733,19.94,72998.8,6.49,5.81,5.81,0,*70
1501002353.29,45734,19.94,72998.8,6.51,5.81,5.81,0,*7E
1501002354.52,45735,19.94,72998.5,6.49,5.85,5.85,0,*76
1501002355.75,45736,19.94,72996.5,6.49,5.93,5.85,0,*72
1501002356.98,45737,19.94,72996.3,6.49,5.85,5.85,0,*74
1501002358.21,45738,19.94,72998.5,6.49,5.93,5.93,0,*7B
1501002359.44,45739,19.94,72998.5,6.49,5.93,5.93,0,*7A
1501002360.7,45740,19.94,73000.8,6.51,5.93,5.93,0,*7D
1501002361.93,45741,19.94,72998.5,6.49,5.93,5.93,0,*75
1501002363.14,45742,19.94,72998.5,6.49,5.93,5.95,0,*70
1501002364.35,45743,19.94,72998.8,6.51,5.95,5.99,0,*72
1501002365.6,45744,19.94,73000.0,6.47,5.93,5.93,0,*7E
1501002366.84,45745,19.94,72998.8,6.47,5.93,6.03,0,*75
1501002368.07,45746,19.94,72994.5,6.47,5.93,6.03,0,*76
1501002369.28,45747,19.94,72996.3,6.47,5.99,6.03,0,*7D
1501002370.49,45748,19.94,72998.0,6.47,5.99,6.03,0,*72
1501002371.71,45749,19.94,72996.8,6.47,6.03,5.99,0,*73
1501002372.91,45750,19.94,72996.8,6.47,5.99,5.99,0,*7B
1501002374.12,45751,19.94,72994.5,6.47,5.99,5.99,0,*7A
1501002375.34,45752,19.94,72996.8,6.47,6.03,5.99,0,*79
1501002376.52,45753,19.94,72998.5,6.45,5.99,5.99,0,*7A
1501002377.73,45754,19.94,72992.8,6.47,5.99,5.99,0,*7F
1501002378.96,45755,19.94,72996.5,6.47,5.93,6.03,0,*74
1501002380.18,45756,19.94,72996.5,6.47,6.03,5.99,0,*7D
1501002381.4,45757,19.94,72996.8,6.47,5.99,5.93,0,*76
1501002382.61,45758,19.94,72998.5,6.47,5.99,5.99,0,*73
1501002383.82,45759,19.94,72998.3,6.47,5.99,5.99,0,*72
1501002385.0,45760,19.94,72998.5,6.45,5.99,6.03,0,*7A
1501002386.22,45761,19.94,72996.8,6.47,6.03,5.99,0,*79
1501002387.43,45762,19.94,72996.5,6.47,6.03,6.11,0,*79
1501002388.64,45763,19.94,72996.5,6.47,6.11,6.03,0,*78
1501002389.85,45764,19.94,72996.8,6.47,6.03,6.03,0,*7C
1501002391.03,45765,19.94,72998.5,6.45,5.99,5.99,0,*7F
1501002392.24,45766,19.94,72998.8,6.47,6.03,5.99,0,*7E
1501002393.45,45767,19.94,72996.3,6.47,5.99,6.03,0,*7F
1501002394.65,45768,19.94,72998.5,6.49,6.03,6.03,0,*7E
1501002395.86,45769,19.94,72996.0,6.47,6.03,6.03,0,*71
1501002397.09,45770,19.94,72996.8,6.49,6.13,6.13,0,*77
1501002398.27,45771,19.94,72996.3,6.45,6.11,6.03,0,*79
1501002399.48,45772,19.94,72998.8,6.47,6.03,6.03,0,*7B
1501002400.67,45773,19.94,72998.5,6.45,6.03,6.03,0,*78
1501002401.88,45774,19.94,72996.3,6.47,6.11,6.03,0,*7E
1501002403.09,45775,19.94,72998.0,6.47,5.99,6.03,0,*7C
1501002404.3,45776,19.94,72998.0,6.47,5.99,6.03,0,*7F
1501002405.51,45777,19.94,72998.0,6.47,6.03,6.03,0,*7E
1501002406.72,45778,19.94,72996.8,6.47,5.99,5.99,0,*71
1501002407.94,45779,19.94,72996.0,6.47,6.03,5.99,0,*70
1501002409.15,45780,19.94,72996.3,6.47,6.03,6.03,0,*76
1501002410.38,45781,19.94,72998.5,6.47,5.89,5.99,0,*76
1501002411.57,45782,19.94,72998.5,6.45,5.99,5.99,0,*76
1501002412.77,45783,19.94,72998.0,6.47,5.99,5.99,0,*75
1501002413.98,45784,19.94,72998.5,6.47,5.99,5.99,0,*72
1501002415.2,45785,19.94,72996.8,6.47,6.03,6.03,0,*73
1501002416.38,45786,19.94,72996.5,6.45,5.99,6.03,0,*72
1501002417.59,45787,19.94,72996.3,6.47,5.99,5.99,0,*71
1501002418.79,45788,19.94,72998.3,6.47,5.99,5.99,0,*7E
1501002420.03,45789,19.94,72998.8,6.47,5.93,5.99,0,*75
1501002421.28,45790,19.94,72998.0,6.47,5.89,5.89,0,*77
1501002422.5,45791,19.94,72998.5,6.45,5.77,5.81,0,*7D
1501002423.73,45792,19.94,72994.8,6.45,5.81,5.81,0,*77
1501002424.97,45793,19.94,72998.5,6.47,5.81,5.77,0,*7D
1501002426.2,45794,19.94,72996.3,6.45,5.81,5.81,0,*71
1501002427.45,45795,19.94,72996.0,6.47,5.93,5.81,0,*71
1501002428.71,45796,19.94,72996.0,6.47,5.89,5.89,0,*71
1501002429.96,45797,19.94,72996.3,6.47,5.93,5.89,0,*7B
1501002431.19,45798,19.94,72996.5,6.45,5.93,5.93,0,*7D
1501002432.4,45799,19.94,72994.5,6.47,5.99,5.99,0,*7E
1501002433.6,45800,19.94,72996.5,6.45,5.99,5.93,0,*79
1501002434.83,45801,19.94,72996.3,6.45,5.93,5.93,0,*72
1501002436.08,45802,19.94,72998.8,6.47,5.93,5.89,0,*78
1501002437.34,45803,19.94,72998.5,6.47,5.93,5.93,0,*72
1501002438.6,45804,19.94,72996.8,6.47,5.93,5.93,0,*75
1501002439.8,45805,19.94,72996.0,6.45,5.93,6.03,0,*7C
1501002440.99,45806,19.94,72994.3,6.45,5.99,6.03,0,*75
1501002442.17,45807,19.94,72996.5,6.45,6.11,6.03,0,*77
1501002443.36,45808,19.94,72996.3,6.45,6.03,6.03,0,*7B
1501002444.56,45809,19.94,72996.3,6.43,5.95,5.99,0,*70
1501002445.77,45810,19.94,72996.3,6.43,5.99,5.95,0,*78
1501002446.95,45811,19.94,72998.3,6.45,6.11,5.99,0,*70
1501002448.16,45812,19.94,72998.0,6.43,5.99,5.95,0,*7A
1501002449.37,45813,19.94,72998.8,6.47,6.03,6.03,0,*73
1501002450.56,45814,19.88,72992.5,6.45,6.03,6.03,0,*76
1501002451.74,45815,19.94,72994.8,6.45,5.99,5.99,0,*77
1501002452.97,45816,19.94,72998.8,6.45,5.89,5.89,0,*74
1501002454.19,45817,19.94,72992.3,6.45,5.81,5.89,0,*7D
1501002455.42,45818,19.94,72996.3,6.45,5.81,5.81,0,*7A
1501002456.64,45819,19.94,72996.3,6.45,5.81,5.77,0,*72
1501002457.86,45820,19.94,72998.8,6.45,5.81,5.81,0,*71
1501002459.11,45821,19.94,72998.5,6.43,5.73,5.73,0,*76
1501002460.36,45822,19.94,72996.8,6.43,5.73,5.73,0,*75
1501002461.56,45823,19.94,72994.8,6.43,5.71,5.71,0,*74
1501002462.77,45824,19.94,72998.3,6.43,5.63,5.71,0,*70
1501002463.97,45825,19.94,72992.8,6.43,5.71,5.71,0,*72
1501002465.15,45826,19.94,72996.3,6.41,5.71,5.71,0,*73
1501002466.35,45827,19.94,72992.3,6.43,5.71,5.71,0,*70
1501002467.53,45828,19.94,72996.8,6.41,5.71,5.71,0,*7D
1501002468.71,45829,19.94,72998.8,6.41,5.71,5.71,0,*7C
1501002469.91,45830,19.94,72998.5,6.41,5.73,5.71,0,*76
1501002471.14,45831,19.94,72996.3,6.41,5.73,5.73,0,*75
1501002472.36,45832,19.94,72998.3,6.41,5.73,5.73,0,*76
1501002473.58,45833,19.94,72996.5,6.41,5.73,5.73,0,*77
1501002474.81,45834,19.94,72998.0,6.41,5.73,5.77,0,*74
1501002476.01,45835,19.94,72994.5,6.39,5.71,5.71,0,*7E
1501002477.22,45836,19.94,72996.3,6.39,5.71,5.71,0,*7D
1501002478.42,45837,19.94,72996.5,6.39,5.71,5.71,0,*7C
1501002479.64,45838,19.94,72996.8,6.41,5.77,5.73,0,*78
1501002480.85,45839,19.94,72992.0,6.39,5.71,5.71,0,*72
1501002482.07,45840,19.94,72996.3,6.41,5.73,5.77,0,*77
1501002483.29,45841,19.94,72994.3,6.41,5.73,5.73,0,*72
1501002484.5,45842,19.94,72994.8,6.39,5.71,5.71,0,*7E
1501002485.68,45843,19.94,72996.5,6.37,5.67,5.67,0,*71
1501002486.88,45844,19.94,72996.0,6.39,5.71,5.71,0,*78
1501002488.09,45845,19.94,72998.0,6.39,5.71,5.71,0,*79
1501002489.31,45846,19.94,72996.3,6.39,5.71,5.73,0,*78
1501002490.54,45847,19.94,72996.3,6.39,5.71,5.73,0,*79
1501002491.71,45848,19.94,72998.0,6.37,5.71,5.71,0,*7A
1501002492.89,45849,19.94,72996.3,6.37,5.71,5.71,0,*7B
1501002494.07,45850,19.94,72994.0,6.37,5.67,5.67,0,*73
1501002495.3,45851,19.94,72996.5,6.39,5.73,5.71,0,*7E
1501002496.48,45852,19.94,72996.8,6.37,5.71,5.67,0,*76
1501002497.66,45853,19.94,72996.8,6.37,5.71,5.71,0,*70
1501002498.91,45854,19.94,72996.3,6.39,5.73,5.81,0,*74
1501002500.16,45855,19.94,73002.3,6.39,5.81,5.81,0,*78
1501002501.42,45856,19.94,72996.0,6.39,5.81,5.81,0,*7B
1501002502.63,45857,19.94,72998.5,6.37,5.77,5.77,0,*74
1501002503.81,45858,19.94,72996.8,6.37,5.67,5.71,0,*7C
1501002505.02,45859,19.94,72996.8,6.39,5.67,5.71,0,*73
1501002506.2,45860,19.94,72994.8,6.37,5.67,5.67,0,*70
1501002507.38,45861,19.94,72996.3,6.37,5.67,5.67,0,*71
1501002508.56,45862,19.94,72994.5,6.37,5.71,5.71,0,*72
1501002509.74,45863,19.94,72996.5,6.37,5.67,5.71,0,*74
1501002510.93,45864,19.94,72996.0,6.37,5.71,5.73,0,*76
1501002512.13,45865,19.94,72998.0,6.37,5.71,5.77,0,*73
1501002513.37,45866,19.94,72992.8,6.35,5.77,5.77,0,*74
1501002514.6,45867,19.94,72994.8,6.35,5.71,5.77,0,*73
1501002515.83,45868,19.94,72994.3,6.31,5.67,5.73,0,*7B
1501002517.04,45869,19.94,72994.0,6.37,5.77,5.81,0,*70
1501002518.26,45870,19.94,72998.0,6.37,5.81,5.77,0,*78
1501002519.51,45871,19.94,72996.5,6.35,5.77,5.77,0,*72
1501002520.76,45872,19.94,72994.8,6.35,5.77,5.81,0,*78
1501002522.0,45873,19.94,72996.5,6.35,5.77,5.77,0,*70
1501002523.25,45874,19.94,72992.8,6.35,5.77,5.77,0,*77
1501002524.45,45875,19.88,72994.5,6.35,5.71,5.71,0,*76
1501002525.66,45876,19.94,72998.5,6.35,5.71,5.71,0,*75
1501002526.89,45877,19.94,72998.8,6.31,5.73,5.67,0,*75
1501002528.14,45878,19.94,72998.0,6.35,5.77,5.77,0,*7B
1501002529.39,45879,19.94,72998.5,6.31,5.73,5.77,0,*7A
1501002530.61,45880,19.94,72994.8,6.37,5.81,5.81,0,*7E
1501002531.87,45881,19.94,72996.3,6.35,5.89,5.81,0,*75
1501002533.12,45882,19.94,72994.0,6.31,5.85,5.77,0,*77